Theta_e
310 311 311 311 311 312 312 312 313 313 313 313 312 312 312 311 311 311 311 313 312 314 315 317 315 315 317 321 319 318 317 318 319 320 320 320 319 319 320 319 319 319 318 317 317 318 319
311 312 311 312 312 312 312 313 313 313 313 313 312 312 312 311 311 311 312 312 314 314 318 317 315 316 318 321 318 318 317 318 320 319 319 319 319 319 319 320 321 320 320 321 320 320 319
312 312 312 312 311 312 313 313 313 313 312 312 312 312 312 311 311 312 312 313 314 318 318 317 316 316 321 319 317 317 317 318 319 320 319 319 319 319 320 322 320 320 321 321 321 321 322
313 312 312 311 311 312 313 314 314 313 312 311 312 312 312 311 312 312 313 314 317 318 317 317 317 317 321 317 318 317 317 318 319 320 320 319 320 321 322 321 320 321 322 323 322 321 321
313 313 312 311 312 312 313 314 314 313 312 311 311 311 311 312 312 312 313 317 317 318 317 317 317 322 319 316 317 316 317 319 320 320 319 319 321 321 322 322 322 321 322 320 321 320 322
313 313 311 311 312 313 314 315 315 315 314 313 312 313 313 312 312 313 316 316 318 318 318 317 319 319 316 317 316 316 317 319 321 321 320 320 321 323 322 322 322 320 319 319 320 321 320
313 313 311 311 312 313 314 315 316 316 315 314 314 314 313 313 313 316 316 316 318 320 318 319 318 318 316 316 316 318 318 319 320 321 323 321 323 322 321 320 319 319 319 320 320 320 321
314 313 312 311 312 312 314 315 316 316 315 315 315 315 314 314 315 316 317 323 323 319 317 317 317 318 317 317 318 319 319 320 321 322 321 321 322 321 319 319 319 320 321 322 321 320 320
314 313 312 312 312 313 313 315 316 316 316 316 319 319 316 315 315 317 324 323 316 318 318 318 318 318 318 318 319 319 319 319 320 320 319 322 321 318 319 320 321 322 322 323 322 322 322
314 314 313 312 312 313 313 315 316 316 316 318 318 319 319 317 319 321 324 317 315 317 322 318 319 318 318 318 319 318 318 319 319 319 320 320 319 320 320 321 321 323 321 321 322 322 324
313 313 313 312 313 313 313 314 315 316 316 316 318 317 317 319 321 320 319 316 315 321 323 319 319 318 318 320 320 319 319 319 319 320 321 320 320 321 322 321 321 323 322 322 322 324 323
312 312 313 313 313 313 313 313 315 316 315 315 316 316 316 317 320 319 316 317 318 329 323 320 319 320 321 320 320 320 320 319 320 320 320 320 319 321 322 321 321 321 323 323 324 325 326
310 310 312 313 313 313 313 313 313 315 315 315 315 315 316 317 322 317 316 321 322 326 320 320 321 321 321 321 321 322 322 323 324 323 323 321 321 321 321 322 323 323 324 327 328 328 327
309 308 310 312 313 314 314 314 314 313 314 315 315 315 315 315 315 315 315 323 325 323 321 320 320 321 322 322 321 322 322 323 322 322 322 323 325 322 320 321 322 323 323 327 326 326 325
308 308 308 310 313 314 315 314 315 312 313 314 314 315 316 316 315 314 321 325 322 320 321 320 320 321 321 321 322 322 323 322 321 322 324 323 323 321 320 321 322 324 325 322 324 325 324
308 308 308 309 312 314 315 314 316 314 312 313 319 319 321 317 315 316 324 322 322 320 320 320 322 322 323 322 323 323 323 321 321 319 320 321 325 321 319 320 321 321 321 325 325 328 322
308 308 308 309 310 313 316 315 318 315 314 314 320 319 320 314 315 319 325 323 321 319 320 322 322 322 323 323 323 323 322 320 320 320 319 318 320 321 318 320 319 321 322 322 322 322 324
308 308 308 309 309 312 315 317 319 317 315 317 321 323 317 316 320 321 324 321 319 320 321 322 323 323 323 323 323 323 323 323 319 319 320 318 319 320 317 318 319 320 321 320 322 321 321
308 309 308 308 309 310 314 317 317 320 321 324 322 323 319 320 327 324 322 321 321 321 322 322 323 323 323 323 324 323 322 320 319 320 321 319 321 320 319 320 320 320 319 318 318 318 318
309 309 308 308 308 310 313 315 320 320 324 323 323 329 322 323 323 322 323 322 322 321 321 322 322 322 323 323 323 324 323 320 320 320 315 318 319 318 319 318 317 317 316 316 317 320 320
309 309 309 308 308 309 310 314 320 322 322 320 323 326 324 326 324 323 323 323 323 322 321 321 322 322 323 323 323 323 322 321 319 317 318 320 321 318 318 317 316 316 316 317 317 317 319
309 309 309 309 308 308 310 312 315 320 319 322 321 324 323 324 323 323 320 323 322 321 321 321 322 322 321 323 320 322 320 319 319 319 319 319 321 319 318 316 315 315 315 316 316 317 317
309 310 310 309 308 308 309 310 314 316 318 322 318 321 324 320 323 324 323 322 322 321 321 320 321 321 322 319 319 319 319 318 318 319 320 320 321 319 322 317 317 321 318 315 316 316 316
309 309 309 309 308 308 309 310 312 315 316 320 320 322 325 325 324 323 321 321 321 321 321 320 320 321 320 318 318 317 317 317 318 319 319 320 319 317 320 317 323 316 315 315 315 315 315
309 309 309 309 308 308 308 309 311 314 315 315 317 320 321 324 322 321 321 321 320 320 320 320 319 319 319 319 321 320 317 313 316 315 316 318 319 318 320 318 315 315 316 315 315 315 315
309 308 308 308 308 308 308 309 311 313 315 316 316 315 318 318 325 321 322 321 324 324 322 319 317 318 320 321 320 320 321 316 317 317 313 315 317 320 316 319 318 315 315 313 313 316 315
310 308 308 308 308 308 308 309 311 314 315 315 314 313 318 322 320 320 322 323 322 322 324 321 319 319 320 318 319 319 322 316 316 318 314 313 315 318 317 318 316 314 313 313 316 317 314
311 309 308 308 308 308 308 309 310 313 315 316 315 314 318 319 319 319 318 320 320 320 325 321 321 321 321 316 317 320 319 319 318 316 317 316 317 315 316 317 316 313 313 316 315 314 313
312 310 308 308 308 308 308 309 310 311 314 314 318 314 313 319 321 317 317 318 319 320 320 320 319 321 319 322 317 317 322 317 318 319 315 316 316 317 317 318 315 313 314 313 313 312 309
Wind_Speed
8 8 9 9 12 14 14 14 14 13 11 10 10 10 10 10 12 14 15 17 18 15 10 8 10 10 6 6 5 3 5 7 5 1 4 3 6 6 4 7 8 11 9 10 9 7 2
8 7 7 9 11 13 12 12 10 10 9 8 8 9 10 12 14 16 19 19 17 12 9 9 12 10 7 5 1 4 4 5 2 2 1 2 2 3 6 11 5 9 10 8 8 7 5
7 7 6 8 11 10 9 9 8 7 6 7 7 9 12 14 17 19 21 20 15 11 10 11 12 8 9 5 1 3 4 2 4 3 1 1 3 7 10 6 7 10 8 9 8 9 3
7 5 5 7 9 7 6 5 3 3 3 5 8 11 15 18 22 23 22 17 13 10 12 12 12 10 1 2 2 4 2 2 2 1 3 5 4 6 2 8 8 11 9 11 7 6 5
7 5 4 6 7 5 3 2 0 2 5 8 11 15 19 22 24 23 20 16 12 11 11 12 6 5 3 2 2 3 3 5 4 4 3 5 5 5 6 11 10 8 9 2 9 4 3
7 4 3 5 5 3 1 2 3 6 9 11 14 17 20 22 23 22 18 14 12 12 10 8 3 6 3 1 3 4 4 5 7 8 6 5 7 9 11 10 7 7 5 5 4 6 5
7 4 2 4 4 1 3 4 6 8 11 13 16 18 20 21 21 20 16 13 8 5 7 4 9 2 7 3 5 5 5 6 9 10 10 6 11 2 11 7 7 4 4 3 4 4 6
8 5 2 3 3 1 5 6 8 10 13 16 17 18 19 20 19 17 15 7 2 10 10 7 8 7 3 4 8 6 3 9 10 8 4 8 4 5 2 4 3 2 5 1 1 3 5
9 5 2 1 2 2 6 9 10 13 14 13 14 15 16 16 15 13 6 4 18 10 8 6 4 3 3 5 4 5 2 3 4 4 6 6 9 2 3 1 5 2 6 5 9 4 8
9 6 3 1 2 2 8 10 12 14 14 14 15 14 16 16 11 10 5 8 12 4 5 6 5 3 2 2 4 6 3 2 1 3 6 6 4 2 1 1 7 8 3 7 9 8 9
10 7 4 2 0 2 8 11 13 15 15 14 12 12 13 13 9 8 9 10 8 5 3 4 5 2 3 2 4 5 5 2 3 6 5 6 4 2 2 5 6 6 7 8 9 10 13
11 8 6 3 0 2 6 10 13 15 16 15 13 10 9 7 10 10 10 9 5 5 3 6 4 6 9 9 6 5 5 6 3 4 5 8 3 4 6 4 4 7 9 9 8 7 7
12 9 6 4 1 1 5 10 14 16 16 16 14 11 9 10 7 11 9 7 5 4 3 7 8 5 6 7 8 6 5 5 1 6 6 6 4 4 6 10 5 8 8 5 4 5 4
13 10 7 5 2 2 4 11 12 16 18 16 15 12 10 9 10 12 9 6 7 5 5 3 7 9 4 7 4 4 6 9 10 5 2 4 7 5 5 5 6 4 6 3 5 4 6
14 11 8 5 4 3 5 11 12 14 17 17 15 12 8 9 10 10 10 7 2 6 6 10 12 9 7 4 2 4 8 7 7 9 3 3 4 5 5 5 6 4 2 4 5 2 4
15 12 9 6 4 5 6 11 12 13 16 17 10 9 7 10 9 9 7 2 2 2 3 12 7 4 6 7 6 3 2 2 4 8 5 3 2 0 2 4 3 5 3 4 2 3 4
16 13 10 7 5 6 6 10 12 13 16 16 10 11 8 10 10 10 6 2 3 6 3 3 3 5 5 5 3 3 3 5 2 4 4 5 2 4 4 2 7 2 1 3 4 3 4
17 14 11 8 6 6 7 8 12 15 16 16 8 5 10 14 10 6 4 5 3 9 4 3 2 3 5 5 3 3 5 5 2 3 3 5 2 2 4 3 4 5 5 5 4 6 3
18 14 12 9 7 6 7 7 12 15 16 8 5 6 10 14 5 6 4 6 4 8 4 5 3 1 3 5 3 6 6 4 3 3 6 5 0 3 5 6 5 4 2 4 5 3 11
19 15 12 10 8 7 7 7 11 14 13 7 6 3 6 8 4 10 10 9 7 3 4 3 7 6 8 6 4 7 7 4 2 3 3 2 2 3 5 9 8 8 10 10 10 8 12
20 17 14 11 9 8 7 7 9 12 12 8 2 2 4 7 7 10 10 10 10 6 3 7 4 4 8 4 7 5 7 6 4 3 1 3 3 4 7 11 12 14 13 14 16 16 15
21 18 14 12 9 8 7 7 8 9 10 3 4 4 2 3 7 10 4 9 12 5 8 8 7 8 6 8 2 7 5 3 3 4 2 1 1 4 4 6 12 17 16 16 17 13 12
22 18 15 12 10 8 7 7 7 7 8 3 3 8 5 4 8 8 7 9 9 10 2 2 11 8 9 9 9 9 7 5 3 2 4 1 1 2 4 9 14 6 3 7 7 7 11
22 19 16 13 11 9 7 7 7 7 7 5 7 6 4 4 7 7 7 9 11 6 9 10 8 8 5 10 10 7 7 5 2 2 3 3 1 2 3 5 2 7 16 14 12 9 10
22 20 17 14 12 9 8 7 7 7 7 5 10 4 4 2 6 6 10 14 11 12 14 12 6 7 11 3 2 2 1 3 1 2 1 4 4 2 2 4 14 12 3 6 9 15 11
23 22 19 16 13 11 9 7 7 7 8 8 7 6 3 13 4 10 11 15 10 7 7 5 7 7 4 3 2 2 3 2 5 6 4 3 1 4 3 4 4 6 9 4 7 11 4
23 23 20 18 15 12 10 9 8 8 9 9 7 7 4 6 5 8 7 9 6 9 4 7 7 4 3 2 2 2 3 2 3 2 4 3 2 6 7 6 9 9 4 3 5 3 19
22 23 21 19 16 14 12 10 9 9 9 9 7 7 6 4 7 5 6 7 6 10 5 10 6 2 3 2 4 4 1 4 2 4 5 7 6 4 3 3 6 2 5 5 9 17 14
21 22 22 20 17 15 13 11 10 10 10 8 4 6 6 5 6 10 9 11 10 6 5 14 2 6 9 3 3 2 2 0 1 3 5 4 7 4 8 5 14 14 10 6 7 6 7
Wind_Direction
247 266 280 295 302 302 302 294 286 284 276 265 254 240 226 210 193 190 181 172 165 162 165 159 163 175 184 231 72 358 28 23 40 188 233 208 187 154 102 132 134 122 123 119 139 161 150
243 265 281 300 305 307 301 294 292 285 276 261 240 220 201 189 181 176 166 163 157 162 155 150 159 175 222 223 338 323 343 23 58 212 197 267 8 337 122 128 149 135 141 147 168 169 170
240 260 284 304 312 310 300 295 294 284 262 237 211 193 184 174 167 163 157 155 157 152 145 145 156 177 243 87 260 318 319 336 9 15 11 40 143 184 148 139 140 151 152 169 193 187 152
234 254 286 309 317 312 298 301 297 270 222 195 178 170 166 160 156 154 152 152 150 141 140 145 149 177 284 224 255 326 275 278 332 38 119 139 176 125 218 123 175 192 228 186 137 189 165
224 243 285 315 321 310 295 318 5 142 139 146 149 151 150 151 152 151 153 148 141 134 139 151 147 233 135 301 262 294 191 196 189 165 145 143 169 169 170 195 190 201 222 177 157 215 265
215 231 283 318 325 294 247 166 143 128 132 133 139 143 146 150 151 152 150 148 128 123 136 151 225 225 181 181 233 191 197 168 178 163 166 203 201 196 213 219 260 143 186 177 290 112 247
210 215 264 322 329 248 172 165 141 135 135 135 138 144 147 149 151 152 151 135 135 143 185 357 139 83 117 115 143 160 188 191 182 215 215 210 243 357 40 360 359 11 298 275 110 82 299
207 204 245 326 327 195 175 166 146 145 141 138 136 138 145 152 156 159 157 221 111 120 118 108 108 97 121 173 142 137 189 219 207 209 206 218 82 56 16 10 341 305 295 105 116 104 309
202 202 221 311 340 193 179 167 157 156 151 143 141 145 152 155 159 167 184 174 139 147 132 120 117 96 89 100 53 54 302 229 235 216 227 2 82 104 295 75 307 114 327 14 320 309 256
196 198 203 230 3 189 184 175 169 165 160 153 141 138 149 155 157 168 176 173 166 178 180 140 169 110 176 157 75 44 32 4 228 128 108 71 104 149 213 60 330 293 59 303 280 263 247
191 190 196 183 34 182 192 185 177 171 170 163 159 142 144 157 161 166 193 179 191 283 183 153 113 88 113 18 120 62 37 228 160 148 254 108 159 179 236 16 327 24 315 286 279 263 270
188 183 190 171 113 151 197 193 187 181 177 172 170 157 150 157 168 177 157 158 172 237 143 153 154 144 98 89 75 94 96 86 50 134 70 105 105 14 18 287 281 299 265 241 263 254 246
187 181 184 165 143 111 188 190 190 188 184 179 175 173 174 164 176 171 154 147 209 271 145 154 152 177 112 112 79 98 110 73 55 192 173 167 89 108 351 295 177 295 296 271 220 198 270
188 179 180 166 144 88 164 178 184 187 187 183 181 182 185 186 169 170 166 212 233 19 181 95 146 155 135 135 101 151 148 98 50 323 157 229 165 347 7 11 330 338 324 352 302 336 327
192 180 178 166 146 99 144 165 173 177 183 182 181 180 179 180 176 172 209 212 106 180 149 161 164 174 145 139 164 128 75 75 38 19 17 304 104 123 42 12 325 11 14 360 280 201 256
193 182 178 167 149 110 132 158 162 162 171 172 166 166 190 180 173 169 225 306 144 54 140 173 179 270 163 148 160 160 111 46 86 29 333 51 205 356 73 260 135 339 11 260 171 289 281
195 185 176 167 154 123 125 158 162 156 157 165 161 186 202 180 162 194 207 152 150 145 194 242 170 170 139 141 140 112 88 110 38 74 14 1 294 124 244 32 348 251 221 294 303 300 294
195 188 176 170 161 136 122 153 165 156 151 144 177 191 173 162 190 198 195 155 135 151 164 126 88 111 157 147 138 114 136 63 90 359 29 35 343 275 4 76 353 322 329 302 288 296 234
194 191 181 173 166 149 128 135 168 166 161 164 191 110 162 172 171 196 145 136 157 174 155 167 141 165 177 147 125 122 118 98 77 19 20 15 144 295 184 162 170 275 284 297 283 327 265
194 192 184 177 174 158 141 128 158 173 174 161 175 119 153 205 294 189 183 172 144 89 118 111 117 138 138 143 116 151 130 138 108 60 45 310 317 301 312 326 322 295 283 272 265 256 267
193 194 186 183 180 169 155 141 143 168 179 169 206 139 154 180 211 200 187 179 163 152 151 174 156 195 156 141 143 146 133 142 170 145 154 309 264 302 294 303 305 301 295 283 272 261 259
195 195 191 186 184 180 165 157 152 157 166 176 185 159 136 132 164 176 150 199 183 138 164 167 185 155 162 156 204 171 161 196 185 164 199 132 286 337 272 298 313 309 300 284 267 270 287
195 196 196 190 187 186 177 168 165 165 166 165 169 152 174 172 180 176 189 175 172 144 48 203 147 142 99 80 76 65 59 59 71 183 200 281 289 332 275 343 319 287 242 338 308 251 310
194 195 196 197 191 189 186 175 172 172 178 173 175 146 127 154 194 188 179 175 159 170 138 122 138 121 110 117 97 82 76 57 235 102 290 140 159 68 286 305 275 15 315 291 286 293 301
194 196 196 198 196 190 190 178 170 172 171 170 167 132 136 122 163 161 161 142 126 124 135 117 76 109 139 143 87 28 117 58 121 44 139 244 156 148 263 266 294 293 71 358 332 303 307
193 195 196 197 199 196 188 183 169 162 165 159 164 157 123 123 206 158 153 166 152 135 139 104 104 130 132 97 105 169 212 267 152 143 57 76 139 230 185 259 274 332 0 12 308 274 59
191 194 196 196 197 197 191 185 177 164 162 160 159 154 112 103 149 165 159 178 174 181 118 143 152 144 164 107 115 166 224 334 215 189 191 117 198 220 230 253 271 300 16 318 281 350 327
190 191 194 196 195 197 197 190 186 180 173 170 166 165 136 108 143 148 137 151 167 183 157 138 142 151 126 129 168 204 208 202 223 261 175 187 179 207 217 248 273 120 254 312 300 315 352
191 190 191 193 194 196 198 196 192 188 183 180 171 177 163 146 154 173 176 172 162 168 184 172 198 156 179 129 186 169 186 16 224 243 177 251 209 248 196 236 301 308 334 326 320 345 348